Flag for Norway Weather past 2 weeks in Langevåg, Norway

Now
52 °F

Passing clouds.


Feels Like: 49 °F
Forecast: 46 / 53 °F
Wind: 8 mph from Northeast

Location: Alesund / Vigra

Current Time: May 30, 2015 at 9:37:56 AM

Latest Report: May 30, 2015 at 8:50 AM


Visibility: N/A

Pressure: 29.59 "Hg

Humidity: 72%

Dew point: 43 °F

Location of LangevågLocation

Historic Weather in Langevåg — Graph

°F

Langevåg temperature yesterday

Maximum temperature yesterday: 52 °F (at 12:20 PM)
Minimum temperature yesterday: 45 °F (at 2:20 AM)
Average temperature yesterday: 48 °F

Past Weeks' High & Low Weather Summary

 TemperatureHumidityPressure
High59 °F (May 19, 12:20 PM)100% (May 30, 2:50 AM)30.07 "Hg (May 30, 2:50 AM)
Low37 °F (May 30, 4:20 AM)34% (May 19, 12:20 PM)29.39 "Hg (May 19, 10:20 AM)
Average47 °F77%29.73 "Hg
* Reported May 15 7:20 AM — May 30 7:50 AM, Langevåg, Weather by CustomWeather, © 2015

Note: Actual official high and low records may vary slightly from our data, if they occured in-between our weather recording intervals... More about our weather records

Advertising

Langevåg weather history for previous 24 hours

 ConditionsComfort  
Time TempWeatherWind HumidityBarometerVisibility
7:50 AM
Sat, May 30
50 °FPassing clouds.7 mph76%29.59 "HgN/A
7:20 AM48 °FPassing clouds.8 mph82%29.59 "HgN/A
6:50 AM46 °FSunny.8 mph87%29.56 "Hg10 mi
6:20 AM46 °FSunny.9 mph87%29.56 "Hg10 mi
5:50 AM45 °FPassing clouds.3 mph93%29.56 "HgN/A
5:20 AM41 °FQuite cool.6 mph93%29.56 "HgN/A
4:50 AM37 °FChilly.7 mph100%29.56 "HgN/A
4:20 AM37 °FChilly.3 mph93%29.56 "HgN/A
3:50 AM39 °FChilly.2 mph93%29.56 "HgN/A
3:20 AM41 °FQuite cool.5 mph100%29.56 "HgN/A
2:50 AM39 °FChilly.5 mph100%29.56 "HgN/A
2:20 AM41 °FQuite cool.3 mph93%29.56 "HgN/A
1:50 AM43 °FQuite cool.3 mph87%29.56 "HgN/A
1:20 AM45 °FQuite cool.2 mph81%29.56 "HgN/A
12:50 AM45 °FQuite cool.3 mph87%29.56 "HgN/A
12:20 AM45 °FQuite cool.3 mph81%29.56 "HgN/A
11:50 PM
Fri, May 29
45 °FQuite cool.8 mph81%29.53 "HgN/A
11:20 PM45 °FQuite cool.7 mph81%29.53 "HgN/A
10:50 PM46 °FSunny.6 mph82%29.53 "Hg10 mi
10:20 PM48 °FPassing clouds.7 mph71%29.53 "HgN/A
9:50 PM48 °FPassing clouds.9 mph71%29.53 "HgN/A
9:20 PM50 °FPassing clouds.9 mph67%29.53 "HgN/A
8:50 PM48 °FScattered clouds.10 mph76%29.53 "HgN/A
8:20 PM48 °FScattered clouds.14 mph76%29.50 "HgN/A
7:50 PM50 °FScattered clouds.13 mph71%29.50 "HgN/A
7:20 PM50 °FScattered clouds.13 mph71%29.50 "HgN/A
6:50 PM50 °FScattered clouds.13 mph71%29.50 "HgN/A
6:20 PM50 °FBroken clouds.14 mph71%29.50 "HgN/A
5:50 PM50 °FScattered clouds.17 mph76%29.50 "HgN/A
5:20 PM52 °FScattered clouds.13 mph72%29.50 "HgN/A
4:50 PM52 °FScattered clouds.14 mph67%29.50 "HgN/A
4:20 PM52 °FScattered clouds.14 mph67%29.50 "HgN/A
3:50 PM52 °FScattered clouds.15 mph72%29.47 "HgN/A
3:20 PM52 °FScattered clouds.15 mph67%29.47 "HgN/A
2:50 PM52 °FScattered clouds.13 mph67%29.47 "HgN/A
2:20 PM52 °FScattered clouds.14 mph67%29.47 "HgN/A
1:50 PM52 °FScattered clouds.13 mph67%29.47 "HgN/A
1:20 PM50 °FScattered clouds.13 mph71%29.47 "HgN/A
12:20 PM52 °FPartly sunny.12 mph67%29.47 "HgN/A
11:50 AM50 °FBroken clouds.14 mph67%29.47 "HgN/A
11:20 AM50 °FBroken clouds.13 mph67%29.47 "HgN/A
10:50 AM50 °FScattered clouds.14 mph71%29.45 "HgN/A
10:20 AM46 °FBroken clouds.13 mph82%29.45 "HgN/A
9:50 AM48 °FLight rain. Broken clouds.13 mph76%29.45 "HgN/A
9:20 AM48 °FBroken clouds.15 mph76%29.45 "HgN/A
Weather by CustomWeather, © 2015

See weather overviewHow to use our weather pages